Regional Weather Roundup
Issued by NWS

Home | Current Version | Previous Version | Text Only | Print | Product List | Glossary On
Versions: 1 2 3 4 5 6 7 8 9 10 11 12 13 14 15 16 17 18 19 20 21 22 23 24 25 26 27 28 29 30 31 32 33 34 35 36 37 38 39 40 41 42 43 44 45 46 47 48 49 50
000
ASUS44 KLIX 032311
RWRLA
LOUISIANA WEATHER ROUNDUP
NATIONAL WEATHER SERVICE NEW ORLEANS LA
600 PM CDT FRI JUL 03 2015

NOTE: "FAIR" INDICATES FEW OR NO CLOUDS BELOW 12,000 FEET WITH NO
      SIGNIFICANT WEATHER AND/OR OBSTRUCTIONS TO VISIBILITY.
      SKY/WX - SKY CONDITION AND SIGNIFICANT WEATHER.
      TMP - AIR TEMPERATURE.    DP   - DEWPOINT TEMPERATURE.
      RH  - RELATIVE HUMIDITY.  PRES - PRESSURE.
      HX  - HEAT INDEX.         WCI  - WIND CHILL INDEX.

*  THESE STATIONS ARE NOT NWS OR FAA STATIONS AND ARE NOT UNDER
   NWS QUALITY CONTROL.

LAZ040-048-061>063-065-066-069-040000-
SOUTHEAST LOUISIANA

CITY           SKY/WX    TMP DP  RH WIND       PRES   REMARKS
N.O. AUDUBON     N/A     90  77  66 MISG        N/A  HX 102
N.O. INTL ARPT PTSUNNY   90  72  55 S12       29.99S HX  97
N.O. LAKEFRONT PTSUNNY   93  72  50 SW14      29.99F HX 101
N.O. DOWNTOWN* FAIR      93  72  49 S10       30.00F HX 100
RESERVE*       NOT AVBL
SLIDELL        MOSUNNY   91  76  61 S6        29.98F HX 103
BATON ROUGE    PTSUNNY   89  73  59 S13       29.98F HX  97
BOOTHVILLE     MOSUNNY   87  76  69 S9        30.03S HX  97
BELLE CHASSE   PTSUNNY   87  70  56 S12       30.00S
BOGALUSA*        N/A     92  71  50 SW8       30.00F HX  99
GALLIANO*      CLEAR     89  72  55 MISG      30.02S HX  96
NEW ROADS*     FAIR     N/A N/A N/A S6        29.98S
GONZALES*      FAIR      89  74  62 SW5       29.98S HX  98
HAMMOND*       MOSUNNY   91  66  43 W8        30.00S
HOUMA*         MOSUNNY   88  73  62 SW8       30.01S HX  96
PORT FOURCHON* PTCLDY    88  75  66 S7        30.03S HX  97

$$

LAZ041-044-053-054-040000-
SOUTHWEST LOUISIANA

CITY           SKY/WX    TMP DP  RH WIND       PRES   REMARKS
LAKE CHARLES   MOSUNNY   87  74  64 S9        29.98S HX  95
LAFAYETTE      MOSUNNY   89  73  59 S10       29.98F HX  97
PATTERSON      PTSUNNY   86  73  66 S9        30.01F
SALT POINT       N/A     87  76  69 VRB5      29.99F HX  97
NEW IBERIA     NOT AVBL
CHENAULT AIRPK SUNNY     88  73  62 S13       29.98  HX  96

$$

LAZ027-028-040000-
CENTRAL LOUISIANA

CITY           SKY/WX    TMP DP  RH WIND       PRES   REMARKS
FORT POLK      CLOUDY    89  73  58 SW9       29.96S HX  97
ALEXANDRIA INT PTSUNNY   88  74  63 S7        29.94S HX  96
ALEXANDRIA     CLOUDY    91  76  61 S5        29.96F HX 103

$$

LAZ001-002-040000-
NORTHWEST LOUISIANA

CITY           SKY/WX    TMP DP  RH WIND       PRES   REMARKS
SHREVEPORT     CLOUDY    87  75  67 SW8       29.94F HX  96
BARKSDALE AFB  CLOUDY    87  73  62 SW9       29.93F
DTN SHREVEPORT CLOUDY    87  73  62 SW9       29.94F

$$

LAZ014-016-040000-
NORTHEAST LOUISIANA

CITY           SKY/WX    TMP DP  RH WIND       PRES   REMARKS
MONROE         CLOUDY    88  76  67 SW12      29.95S HX  99
TALLULAH       CLOUDY    86  76  71 SW5       29.96S HX  96

$$




USA.gov is the U.S. government's official web portal to all federal, state and local government web resources and services.